Change the Weather History Date:

Tuesday, October 25, 2011

  Actual Average Record
Temperature  
Mean Temperature 68 °F -  
Max Temperature 80 °F 65 °F 81 °F (2014)
Min Temperature 57 °F 48 °F 25 °F (2013)
Cooling Degree Days 3    
Growing Degree Days 18 (Base 50)    
Moisture  
Dew Point 56 °F    
Average Humidity 64    
Maximum Humidity 87    
Minimum Humidity 47    
Precipitation  
Precipitation 0.00 in - - ()
Sea Level Pressure  
Sea Level Pressure 29.94 in    
Wind  
Wind Speed 9 mph (South)    
Max Wind Speed 18 mph    
Max Gust Speed 33 mph    
Visibility 10 miles    
Events      
Averages and records for this station are not official NWS values.
T = Trace of Precipitation, MM = Missing Value Source: NWS Daily Summary

Daily Weather History Graph

Daily Weather History Graph

Search for Another Location

Airport or City:

Trip Planner

Search our weather history database for the weather conditions in past years. The results will help you decide how hot, cold, wet, or windy it might be!

Date:

Astronomy

Oct. 25, 2011 Rise Set
Actual Time 7:26 AM CDT 6:18 PM CDT
Civil Twilight 6:59 AM CDT 6:45 PM CDT
Nautical Twilight 6:28 AM CDT 7:15 PM CDT
Astronomical Twilight 5:58 AM CDT 7:46 PM CDT
Moon 5:59 AM CDT (10/25) 5:20 PM CDT (10/25)
Length of Visible Light 11h 45m
Length of Day
10h 51m
Waning Crescent, 2% of the Moon is Illuminated
Oct 25
Waning Crescent
Oct 26
New
Nov 2
First Quarter
Nov 10
Full
Nov 18
Last Quarter

Hourly Weather History & Observations

Time (CDT) Temp. Dew Point Humidity Pressure Visibility Wind Dir Wind Speed Gust Speed Precip Events Conditions
12:55 AM 62.6 °F 52.2 °F 69% 30.08 in 10.0 mi Variable 6.9 mph - N/A   Clear
1:55 AM 59.7 °F 52.9 °F 78% 30.08 in 10.0 mi South 6.9 mph - N/A   Clear
2:55 AM 57.4 °F 53.6 °F 87% 30.07 in 10.0 mi SSE 6.9 mph - N/A   Clear
3:55 AM 60.4 °F 55.4 °F 83% 30.04 in 10.0 mi South 6.9 mph - N/A   Clear
4:55 AM 59.5 °F 53.8 °F 81% 30.05 in 10.0 mi South 6.9 mph - N/A   Clear
5:55 AM 58.3 °F 52.7 °F 82% 30.03 in 10.0 mi South 8.1 mph - N/A   Clear
6:55 AM 58.3 °F 51.8 °F 79% 30.02 in 10.0 mi South 10.4 mph 16.1 mph N/A   Clear
7:55 AM 60.1 °F 52.5 °F 76% 30.01 in 10.0 mi South 9.2 mph - N/A   Clear
8:55 AM 64.2 °F 52.7 °F 66% 30.03 in 10.0 mi SSW 12.7 mph 21.9 mph N/A   Clear
9:55 AM 68.5 °F 53.8 °F 59% 30.01 in 10.0 mi South 13.8 mph 19.6 mph N/A   Clear
10:55 AM 72.5 °F 53.6 °F 51% 29.98 in 10.0 mi South 16.1 mph 27.6 mph N/A   Clear
11:55 AM 74.8 °F 54.9 °F 50% 29.96 in 10.0 mi South 12.7 mph 27.6 mph N/A   Scattered Clouds
12:55 PM 78.1 °F 56.5 °F 47% 29.91 in 10.0 mi South 12.7 mph 25.3 mph N/A   Partly Cloudy
1:55 PM 78.8 °F 57.2 °F 47% 29.87 in 10.0 mi South 18.4 mph 29.9 mph N/A   Clear
2:55 PM 79.3 °F 57.9 °F 48% 29.85 in 10.0 mi South 11.5 mph 26.5 mph N/A   Clear
3:55 PM 79.2 °F 58.8 °F 50% 29.82 in 10.0 mi South 16.1 mph 27.6 mph N/A   Clear
4:55 PM 78.8 °F 57.4 °F 48% 29.81 in 10.0 mi South 13.8 mph 33.4 mph N/A   Partly Cloudy
5:55 PM 75.6 °F 57.0 °F 52% 29.81 in 10.0 mi South 11.5 mph 23.0 mph N/A   Clear
6:55 PM 74.5 °F 56.5 °F 53% 29.82 in 10.0 mi South 9.2 mph - N/A   Overcast
7:55 PM 72.9 °F 56.7 °F 57% 29.85 in 10.0 mi SSW 8.1 mph - N/A   Clear
8:55 PM 71.4 °F 57.2 °F 61% 29.85 in 10.0 mi Variable 5.8 mph - N/A   Clear
9:55 PM 70.9 °F 58.8 °F 66% 29.86 in 10.0 mi South 6.9 mph - N/A   Overcast
10:55 PM 69.3 °F 59.2 °F 70% 29.85 in 10.0 mi South 8.1 mph - N/A   Mostly Cloudy
11:55 PM 69.6 °F 59.5 °F 70% 29.84 in 10.0 mi SSW 8.1 mph - N/A   Overcast